Regional Weather Roundup
Issued by NWS

Home | Current Version | Previous Version | Graphics & Text | Print | Product List | Glossary On
Versions: 1 2 3 4 5 6 7 8 9 10 11 12 13 14 15 16 17 18 19 20 21 22 23 24 25 26 27 28 29 30 31 32 33 34 35 36 37 38 39 40 41 42 43 44 45 46 47 48 49 50
222
ASUS43 KOAX 260310
RWRNE

WEATHER ROUNDUP FOR NEBRASKA
NATIONAL WEATHER SERVICE OMAHA NE
1000 PM CDT THU AUG 25 2016

NOTES: SATELLITE DATA IS BEING USED TO AUGMENT CLOUD COVER ABOVE
       12000 FEET.
       "FAIR" INDICATES FEW OR NO CLOUDS BELOW 12,000 FEET WITH NO
       SIGNIFICANT WEATHER AND/OR OBSTRUCTIONS TO VISIBILITY.

  * THESE STATIONS DO NOT REPORT WEATHER SUCH AS RAIN...SNOW OR FOG.

NEZ001>004-019>022-054>056-260400-
NEBRASKA PANHANDLE

CITY           SKY/WX    TMP DP  RH WIND       PRES   REMARKS
SCOTTSBLUFF    CLOUDY    62  47  57 E12       30.18S
ALLIANCE       PTCLDY    55  47  74 NE9       30.20R
CHADRON        MOCLDY    58  48  69 NE5       30.20R
KIMBALL        CLEAR     57  46  67 SE9       30.22S
SIDNEY         MOCLDY    64  44  48 SE9       30.22R
$$

NEZ057>060-069>072-079>082-260400-
SOUTHWEST NEBRASKA

CITY           SKY/WX    TMP DP  RH WIND       PRES   REMARKS
NORTH PLATTE   CLEAR     58  52  80 E7        30.19R
IMPERIAL       CLEAR     59  48  67 SE5       30.19R
LEXINGTON      CLEAR     62  56  81 E5        30.19R
MCCOOK         CLEAR     63  54  72 E7        30.18R
OGALLALA       CLOUDY    68  49  49 E9        30.20R
$$

NEZ005>010-023>029-035>040-094-260400-
NORTH CENTRAL NEBRASKA

CITY           SKY/WX    TMP DP  RH WIND       PRES   REMARKS
VALENTINE      CLEAR     60  45  57 CALM      30.20R
AINSWORTH      CLEAR     56  52  85 E7        30.21R
BROKEN BOW     CLEAR     55  52  89 CALM      30.20R
O`NEILL        CLEAR     60  52  73 N5        30.21R
ORD            CLEAR     62  52  69 E3        30.18R
THEDFORD       CLEAR     61  49  65 E5        30.22R
$$

NEZ041-046>049-061>064-073>077-083>087-260400-
SOUTH CENTRAL NEBRASKA

CITY           SKY/WX    TMP DP  RH WIND       PRES   REMARKS
GRAND ISLAND   CLOUDY    62  56  80 E6        30.19R
AURORA         CLOUDY    61  60  95 NE6       30.19R
HASTINGS       CLOUDY    62  57  83 NE5       30.19R
HEBRON         CLOUDY    65  62  89 CALM      30.15S
HOLDREGE       CLEAR     63  57  82 E7        30.19R
KEARNEY *      CLOUDY    61  57  88 E6        30.18R
YORK           CLOUDY    61  59  94 N3        30.18R
$$

NEZ011>018-030>034-042>045-260400-
NORTHEAST NEBRASKA

CITY           SKY/WX    TMP DP  RH WIND       PRES   REMARKS
NORFOLK        CLEAR     59  56  89 S3        30.18R
ALBION         CLEAR     61  57  87 CALM      30.19R
BLAIR          CLEAR     66  59  79 N6        30.16R
FREMONT        CLOUDY    63  60  89 CALM      30.16S
TEKAMAH        CLEAR     61  58  90 NW5       30.16R
WAYNE          CLEAR     60  58  92 CALM      30.18R
$$

NEZ050>053-065>068-078-088>093-260400-
SOUTHEAST NEBRASKA

CITY           SKY/WX    TMP DP  RH WIND       PRES   REMARKS
LINCOLN        PTCLDY    65  60  84 N6        30.16R
OMAHA EPPLEY   PTCLDY    63  60  90 N6        30.14R
BEATRICE       PTCLDY    65  61  88 CALM      30.14S
FALLS CITY     CLEAR     67  63  87 N3        30.11S
NEBRASKA CITY  PTCLDY    65  65  99 CALM      30.14S
PLATTSMOUTH    CLOUDY    67  62  83 CALM      30.14S
$$

NEZ044-045-051>053-067-260400-
OMAHA AREA

CITY           SKY/WX    TMP DP  RH WIND       PRES   REMARKS
OMAHA EPPLEY   PTCLDY    63  60  90 N6        30.14R
BLAIR          CLEAR     66  59  79 N6        30.16R
FREMONT        CLOUDY    63  60  89 CALM      30.16S
MILLARD        CLOUDY    65  62  88 CALM      30.15R
OFFUTT AFB     MOCLDY    67  61  82 N3        30.14R
PLATTSMOUTH    CLOUDY    67  62  83 CALM      30.14S
WAHOO          FAIR      61  59  92 N3        30.16R
$$




USA.gov is the U.S. government's official web portal to all federal, state and local government web resources and services.